Precipitable_Water
1.06 1.03 1.06 1.07 1.07 1.08 1.09 1.11 1.11 1.13 1.13 1.14 1.12 1.11 1.16 1.15 1.17 1.22 1.26 1.22 1.26 1.25 1.21 1.19 1.26 1.29 1.30 1.33 1.22 1.30 1.41 1.46 1.49 1.47 1.47 1.43 1.43 1.43 1.49 1.53 1.51 1.52 1.49 1.40 1.37 1.37 1.30 1.20 1.19 1.27 1.29 1.25 1.27 1.30 1.31 1.31 1.29 1.23 1.23 1.24 1.21 1.26 1.21 1.10 1.06 1.04 1.26 1.27 1.19 1.25 1.31 1.26 1.26 1.18 1.21 1.26 1.33 1.33 1.33 1.32 1.32 1.36 1.39 1.39 1.41
1.01 1.01 1.02 1.04 1.02 1.04 1.06 1.10 1.12 1.14 1.11 1.12 1.10 1.12 1.16 1.19 1.17 1.23 1.24 1.25 1.25 1.24 1.25 1.23 1.21 1.24 1.27 1.31 1.27 1.27 1.37 1.44 1.48 1.48 1.43 1.39 1.34 1.38 1.41 1.46 1.47 1.46 1.47 1.43 1.42 1.37 1.37 1.27 1.19 1.21 1.27 1.19 1.23 1.23 1.26 1.30 1.27 1.20 1.21 1.22 1.23 1.27 1.26 1.14 1.07 1.07 1.05 1.24 1.19 1.19 1.26 1.29 1.17 1.32 1.18 1.15 1.24 1.31 1.35 1.36 1.38 1.37 1.36 1.37 1.34
0.98 1.01 0.99 1.00 1.02 1.05 1.07 1.09 1.11 1.11 1.10 1.11 1.12 1.13 1.17 1.22 1.25 1.21 1.22 1.26 1.29 1.24 1.24 1.24 1.23 1.20 1.19 1.25 1.29 1.27 1.31 1.42 1.48 1.49 1.49 1.43 1.30 1.30 1.37 1.41 1.43 1.41 1.39 1.41 1.43 1.41 1.35 1.31 1.26 1.23 1.23 1.17 1.17 1.20 1.22 1.25 1.29 1.23 1.20 1.23 1.23 1.25 1.27 1.21 1.14 1.06 1.05 1.14 1.29 1.23 1.14 1.22 1.15 1.20 1.24 1.25 1.27 1.29 1.28 1.32 1.33 1.38 1.39 1.37 1.35
1.01 1.02 1.00 1.00 1.02 1.05 1.08 1.11 1.13 1.13 1.12 1.14 1.15 1.16 1.21 1.26 1.29 1.25 1.23 1.24 1.28 1.28 1.24 1.26 1.27 1.22 1.16 1.17 1.24 1.26 1.29 1.35 1.41 1.48 1.48 1.48 1.39 1.30 1.32 1.38 1.42 1.41 1.37 1.39 1.44 1.44 1.38 1.34 1.33 1.31 1.27 1.20 1.17 1.17 1.18 1.21 1.24 1.25 1.21 1.24 1.21 1.20 1.24 1.28 1.21 1.13 1.15 1.06 1.21 1.23 1.28 1.17 1.20 1.21 1.27 1.28 1.23 1.23 1.26 1.31 1.35 1.33 1.37 1.41 1.40
1.07 1.05 1.02 1.00 1.04 1.05 1.08 1.11 1.12 1.13 1.14 1.17 1.15 1.19 1.23 1.27 1.31 1.27 1.24 1.19 1.24 1.32 1.29 1.29 1.29 1.27 1.19 1.15 1.15 1.21 1.25 1.29 1.34 1.38 1.47 1.51 1.50 1.39 1.33 1.35 1.40 1.42 1.40 1.39 1.42 1.44 1.42 1.38 1.38 1.39 1.34 1.29 1.27 1.22 1.19 1.15 1.18 1.22 1.21 1.22 1.21 1.20 1.19 1.24 1.24 1.20 1.14 1.14 1.19 1.31 1.29 1.30 1.32 1.31 1.27 1.23 1.25 1.24 1.30 1.28 1.33 1.35 1.34 1.36 1.38
1.17 1.13 1.09 1.05 1.07 1.07 1.08 1.07 1.08 1.10 1.12 1.15 1.16 1.18 1.22 1.23 1.27 1.32 1.26 1.20 1.21 1.29 1.34 1.28 1.26 1.26 1.23 1.19 1.16 1.17 1.21 1.24 1.28 1.30 1.35 1.43 1.47 1.48 1.39 1.35 1.38 1.41 1.42 1.42 1.42 1.44 1.43 1.40 1.40 1.42 1.37 1.29 1.27 1.28 1.26 1.18 1.15 1.15 1.17 1.21 1.23 1.23 1.18 1.18 1.24 1.25 1.19 1.15 1.19 1.23 1.32 1.25 1.27 1.29 1.32 1.27 1.25 1.24 1.24 1.29 1.32 1.34 1.31 1.31 1.33
1.29 1.22 1.18 1.15 1.15 1.16 1.16 1.13 1.12 1.13 1.13 1.14 1.18 1.20 1.19 1.21 1.23 1.28 1.33 1.25 1.22 1.20 1.30 1.33 1.29 1.26 1.26 1.23 1.19 1.18 1.18 1.19 1.21 1.26 1.28 1.34 1.38 1.41 1.39 1.36 1.36 1.39 1.41 1.43 1.45 1.46 1.46 1.45 1.41 1.40 1.37 1.32 1.28 1.27 1.28 1.25 1.22 1.17 1.16 1.18 1.24 1.22 1.19 1.17 1.19 1.21 1.21 1.18 1.20 1.24 1.28 1.35 1.30 1.26 1.34 1.34 1.30 1.27 1.22 1.26 1.31 1.41 1.41 1.36 1.29
1.36 1.34 1.28 1.22 1.21 1.23 1.28 1.28 1.26 1.24 1.26 1.23 1.19 1.18 1.19 1.19 1.24 1.27 1.36 1.31 1.23 1.22 1.24 1.34 1.35 1.31 1.29 1.24 1.23 1.23 1.20 1.18 1.19 1.22 1.25 1.28 1.32 1.34 1.34 1.32 1.34 1.36 1.38 1.40 1.42 1.45 1.49 1.49 1.45 1.42 1.39 1.36 1.30 1.30 1.31 1.27 1.27 1.24 1.23 1.21 1.21 1.20 1.19 1.19 1.19 1.19 1.19 1.18 1.19 1.23 1.26 1.27 1.32 1.33 1.38 1.38 1.28 1.27 1.29 1.23 1.15 1.21 1.26 1.36 1.36
1.44 1.44 1.41 1.32 1.28 1.33 1.39 1.43 1.43 1.40 1.42 1.41 1.32 1.23 1.23 1.25 1.27 1.30 1.32 1.34 1.32 1.28 1.27 1.30 1.41 1.37 1.33 1.31 1.27 1.25 1.23 1.20 1.20 1.21 1.22 1.24 1.28 1.29 1.29 1.26 1.28 1.31 1.34 1.35 1.36 1.38 1.44 1.50 1.48 1.45 1.43 1.38 1.35 1.33 1.34 1.32 1.28 1.25 1.30 1.28 1.23 1.20 1.19 1.21 1.21 1.20 1.19 1.18 1.19 1.25 1.27 1.28 1.28 1.29 1.26 1.23 1.22 1.23 1.35 1.32 1.21 1.24 1.33 1.33 1.40
1.49 1.50 1.48 1.46 1.45 1.45 1.46 1.48 1.50 1.52 1.48 1.47 1.46 1.38 1.34 1.37 1.36 1.33 1.35 1.34 1.35 1.34 1.31 1.30 1.34 1.42 1.37 1.33 1.29 1.24 1.23 1.25 1.23 1.21 1.21 1.23 1.22 1.23 1.27 1.25 1.24 1.27 1.29 1.30 1.32 1.34 1.34 1.41 1.48 1.45 1.43 1.40 1.36 1.34 1.33 1.34 1.33 1.34 1.36 1.37 1.32 1.26 1.22 1.19 1.20 1.21 1.20 1.17 1.16 1.20 1.19 1.22 1.27 1.28 1.24 1.28 1.38 1.42 1.35 1.35 1.29 1.35 1.34 1.27 1.35
1.55 1.54 1.54 1.58 1.57 1.55 1.53 1.52 1.55 1.53 1.53 1.50 1.52 1.50 1.44 1.43 1.41 1.42 1.42 1.42 1.39 1.40 1.36 1.31 1.29 1.35 1.47 1.43 1.33 1.27 1.25 1.23 1.24 1.19 1.17 1.19 1.23 1.21 1.18 1.22 1.22 1.21 1.25 1.26 1.23 1.26 1.31 1.34 1.39 1.45 1.42 1.40 1.39 1.35 1.33 1.33 1.32 1.34 1.40 1.45 1.46 1.38 1.27 1.22 1.20 1.24 1.22 1.19 1.21 1.21 1.21 1.23 1.29 1.34 1.31 1.31 1.36 1.41 1.40 1.41 1.43 1.38 1.25 1.17 1.13
1.53 1.57 1.62 1.67 1.66 1.62 1.60 1.60 1.57 1.54 1.55 1.54 1.53 1.53 1.52 1.47 1.45 1.43 1.46 1.44 1.43 1.46 1.44 1.38 1.38 1.36 1.41 1.47 1.39 1.31 1.27 1.25 1.21 1.18 1.16 1.15 1.15 1.20 1.21 1.19 1.22 1.21 1.20 1.24 1.28 1.25 1.24 1.30 1.35 1.39 1.43 1.40 1.38 1.36 1.34 1.33 1.32 1.32 1.36 1.43 1.48 1.50 1.46 1.37 1.29 1.26 1.26 1.23 1.22 1.24 1.25 1.26 1.31 1.35 1.33 1.34 1.37 1.41 1.45 1.46 1.46 1.41 1.34 1.22 1.18
1.52 1.58 1.65 1.69 1.69 1.69 1.68 1.66 1.61 1.57 1.55 1.55 1.56 1.55 1.52 1.48 1.45 1.45 1.45 1.50 1.52 1.48 1.49 1.48 1.46 1.46 1.43 1.47 1.49 1.44 1.37 1.33 1.27 1.24 1.20 1.16 1.14 1.14 1.20 1.23 1.22 1.21 1.21 1.21 1.24 1.29 1.25 1.21 1.26 1.36 1.37 1.41 1.40 1.38 1.35 1.33 1.32 1.32 1.35 1.40 1.47 1.50 1.49 1.49 1.49 1.44 1.39 1.31 1.28 1.29 1.30 1.33 1.32 1.34 1.39 1.36 1.41 1.44 1.46 1.39 1.40 1.44 1.42 1.30 1.25
1.46 1.53 1.59 1.64 1.66 1.68 1.68 1.66 1.62 1.60 1.62 1.60 1.58 1.54 1.51 1.46 1.45 1.49 1.51 1.53 1.51 1.51 1.51 1.51 1.52 1.50 1.48 1.47 1.53 1.56 1.54 1.50 1.43 1.37 1.32 1.27 1.23 1.19 1.18 1.23 1.25 1.24 1.25 1.24 1.23 1.25 1.28 1.22 1.18 1.21 1.35 1.39 1.40 1.40 1.38 1.35 1.32 1.31 1.32 1.37 1.43 1.48 1.51 1.51 1.49 1.48 1.48 1.43 1.41 1.36 1.45 1.45 1.38 1.42 1.49 1.46 1.41 1.45 1.45 1.43 1.44 1.40 1.47 1.39 1.39
1.35 1.47 1.51 1.57 1.62 1.62 1.62 1.61 1.59 1.61 1.63 1.60 1.57 1.52 1.48 1.48 1.48 1.48 1.49 1.48 1.47 1.47 1.48 1.48 1.51 1.53 1.53 1.53 1.52 1.54 1.60 1.61 1.56 1.49 1.44 1.41 1.38 1.33 1.30 1.28 1.29 1.31 1.32 1.33 1.30 1.27 1.28 1.29 1.23 1.20 1.25 1.36 1.38 1.41 1.40 1.35 1.31 1.27 1.27 1.31 1.38 1.44 1.49 1.50 1.50 1.49 1.47 1.44 1.50 1.53 1.55 1.57 1.54 1.53 1.53 1.53 1.52 1.56 1.53 1.50 1.49 1.46 1.46 1.52 1.43
1.26 1.39 1.46 1.50 1.53 1.54 1.53 1.51 1.53 1.55 1.55 1.53 1.48 1.44 1.45 1.46 1.46 1.49 1.50 1.52 1.55 1.56 1.56 1.54 1.52 1.53 1.58 1.57 1.53 1.51 1.57 1.61 1.58 1.56 1.52 1.49 1.48 1.46 1.41 1.35 1.32 1.32 1.35 1.37 1.38 1.37 1.35 1.34 1.33 1.28 1.29 1.32 1.38 1.36 1.39 1.40 1.32 1.25 1.22 1.26 1.33 1.41 1.46 1.54 1.58 1.58 1.54 1.51 1.49 1.52 1.59 1.62 1.62 1.60 1.57 1.58 1.71 1.72 1.65 1.60 1.61 1.54 1.43 1.33 1.19
1.18 1.29 1.39 1.47 1.51 1.53 1.51 1.49 1.48 1.48 1.48 1.46 1.43 1.42 1.42 1.47 1.51 1.56 1.49 1.50 1.52 1.54 1.55 1.57 1.60 1.60 1.59 1.59 1.55 1.52 1.57 1.60 1.59 1.57 1.54 1.52 1.51 1.49 1.47 1.45 1.41 1.36 1.34 1.38 1.41 1.40 1.38 1.38 1.39 1.38 1.38 1.36 1.38 1.32 1.31 1.34 1.31 1.24 1.20 1.21 1.28 1.34 1.38 1.51 1.58 1.61 1.60 1.56 1.56 1.55 1.57 1.63 1.66 1.67 1.62 1.57 1.64 1.71 1.59 1.46 1.39 1.43 1.35 1.21 1.18
1.16 1.27 1.38 1.47 1.52 1.52 1.51 1.49 1.46 1.45 1.44 1.40 1.39 1.42 1.48 1.53 1.53 1.57 1.50 1.47 1.47 1.53 1.60 1.62 1.63 1.63 1.61 1.60 1.61 1.58 1.57 1.63 1.60 1.60 1.59 1.58 1.55 1.51 1.49 1.46 1.41 1.40 1.41 1.44 1.46 1.44 1.43 1.41 1.43 1.45 1.42 1.39 1.39 1.34 1.31 1.27 1.26 1.25 1.22 1.20 1.22 1.26 1.33 1.45 1.53 1.59 1.65 1.62 1.59 1.61 1.62 1.61 1.61 1.65 1.63 1.57 1.53 1.53 1.41 1.28 1.34 1.34 1.25 1.24 1.19
1.19 1.25 1.38 1.48 1.51 1.51 1.52 1.50 1.49 1.46 1.42 1.41 1.45 1.46 1.46 1.48 1.53 1.56 1.54 1.53 1.51 1.53 1.57 1.58 1.62 1.65 1.67 1.65 1.66 1.65 1.65 1.69 1.69 1.65 1.65 1.64 1.64 1.63 1.58 1.52 1.45 1.42 1.42 1.40 1.45 1.48 1.52 1.53 1.48 1.45 1.42 1.40 1.40 1.37 1.34 1.29 1.26 1.29 1.26 1.25 1.22 1.21 1.29 1.41 1.44 1.49 1.56 1.58 1.57 1.60 1.63 1.65 1.62 1.58 1.60 1.56 1.47 1.41 1.40 1.36 1.34 1.24 1.17 1.19 1.17
1.30 1.35 1.43 1.50 1.53 1.53 1.53 1.52 1.52 1.50 1.47 1.48 1.48 1.47 1.50 1.52 1.53 1.53 1.54 1.55 1.56 1.58 1.58 1.58 1.60 1.65 1.72 1.74 1.73 1.72 1.68 1.70 1.70 1.70 1.69 1.69 1.69 1.70 1.70 1.60 1.49 1.44 1.45 1.42 1.41 1.46 1.51 1.55 1.58 1.51 1.46 1.42 1.39 1.37 1.38 1.37 1.28 1.31 1.34 1.26 1.23 1.20 1.36 1.40 1.43 1.48 1.53 1.57 1.58 1.61 1.62 1.66 1.62 1.55 1.55 1.52 1.43 1.36 1.38 1.37 1.34 1.32 1.27 1.22 1.17
1.34 1.38 1.44 1.48 1.49 1.51 1.54 1.53 1.51 1.52 1.53 1.50 1.48 1.48 1.51 1.49 1.52 1.55 1.56 1.61 1.63 1.64 1.65 1.65 1.64 1.65 1.71 1.76 1.78 1.77 1.74 1.71 1.72 1.69 1.68 1.67 1.67 1.68 1.68 1.63 1.59 1.58 1.56 1.51 1.48 1.44 1.45 1.51 1.49 1.49 1.49 1.43 1.39 1.41 1.41 1.41 1.37 1.36 1.34 1.28 1.26 1.35 1.43 1.41 1.42 1.50 1.54 1.56 1.62 1.66 1.66 1.65 1.60 1.54 1.52 1.49 1.36 1.31 1.34 1.37 1.41 1.42 1.33 1.22 1.13
1.36 1.41 1.43 1.44 1.46 1.46 1.45 1.49 1.52 1.52 1.55 1.56 1.53 1.50 1.55 1.60 1.61 1.63 1.66 1.66 1.65 1.65 1.68 1.69 1.67 1.67 1.71 1.75 1.77 1.78 1.83 1.81 1.80 1.74 1.72 1.71 1.71 1.73 1.73 1.70 1.74 1.76 1.71 1.64 1.56 1.50 1.47 1.48 1.45 1.46 1.49 1.48 1.41 1.38 1.38 1.41 1.41 1.39 1.38 1.41 1.45 1.45 1.44 1.44 1.46 1.47 1.55 1.58 1.63 1.63 1.62 1.59 1.56 1.51 1.51 1.48 1.34 1.32 1.35 1.40 1.46 1.45 1.40 1.28 1.22
1.42 1.43 1.42 1.40 1.41 1.44 1.47 1.49 1.51 1.53 1.54 1.57 1.57 1.54 1.59 1.61 1.65 1.70 1.69 1.67 1.68 1.68 1.69 1.71 1.66 1.64 1.66 1.70 1.74 1.75 1.78 1.82 1.82 1.77 1.75 1.75 1.75 1.74 1.74 1.76 1.81 1.82 1.73 1.66 1.64 1.65 1.70 1.69 1.68 1.66 1.62 1.59 1.50 1.43 1.37 1.36 1.39 1.37 1.38 1.44 1.45 1.48 1.48 1.48 1.51 1.49 1.51 1.55 1.58 1.59 1.59 1.57 1.54 1.54 1.52 1.43 1.40 1.44 1.45 1.51 1.51 1.43 1.38 1.38 1.31
1.49 1.46 1.42 1.39 1.40 1.42 1.46 1.49 1.53 1.55 1.57 1.59 1.61 1.61 1.62 1.66 1.68 1.67 1.68 1.66 1.64 1.64 1.65 1.66 1.61 1.56 1.55 1.60 1.65 1.68 1.74 1.79 1.81 1.80 1.76 1.74 1.73 1.72 1.73 1.76 1.81 1.79 1.79 1.74 1.74 1.76 1.78 1.77 1.80 1.79 1.77 1.75 1.71 1.63 1.51 1.43 1.36 1.35 1.40 1.42 1.44 1.47 1.49 1.51 1.53 1.51 1.50 1.53 1.55 1.56 1.56 1.58 1.56 1.54 1.49 1.42 1.45 1.50 1.53 1.53 1.46 1.46 1.38 1.31 1.26
1.49 1.42 1.38 1.36 1.36 1.41 1.48 1.53 1.58 1.62 1.64 1.63 1.60 1.60 1.63 1.67 1.65 1.66 1.66 1.65 1.63 1.58 1.57 1.59 1.57 1.54 1.52 1.50 1.53 1.60 1.65 1.68 1.70 1.74 1.71 1.68 1.68 1.67 1.69 1.73 1.79 1.83 1.80 1.79 1.82 1.84 1.87 1.88 1.89 1.86 1.80 1.77 1.78 1.81 1.78 1.66 1.50 1.39 1.41 1.42 1.45 1.48 1.49 1.49 1.49 1.47 1.46 1.48 1.51 1.55 1.57 1.57 1.57 1.57 1.58 1.56 1.54 1.52 1.52 1.50 1.44 1.37 1.34 1.30 1.22
1.39 1.39 1.38 1.40 1.42 1.46 1.48 1.52 1.59 1.61 1.61 1.63 1.63 1.64 1.63 1.64 1.61 1.64 1.65 1.64 1.63 1.60 1.56 1.56 1.54 1.50 1.48 1.51 1.55 1.60 1.65 1.70 1.72 1.79 1.81 1.79 1.76 1.76 1.78 1.81 1.83 1.85 1.86 1.84 1.82 1.84 1.86 1.88 1.88 1.86 1.84 1.82 1.81 1.78 1.75 1.75 1.70 1.57 1.46 1.45 1.47 1.47 1.47 1.48 1.50 1.46 1.44 1.48 1.53 1.52 1.58 1.61 1.60 1.66 1.61 1.58 1.51 1.46 1.48 1.44 1.37 1.30 1.26 1.20 1.12
1.41 1.43 1.45 1.45 1.47 1.48 1.47 1.48 1.51 1.59 1.63 1.66 1.66 1.66 1.67 1.67 1.66 1.63 1.62 1.61 1.60 1.58 1.56 1.53 1.50 1.49 1.48 1.53 1.59 1.63 1.66 1.70 1.76 1.80 1.89 1.89 1.84 1.80 1.75 1.72 1.74 1.78 1.80 1.78 1.80 1.83 1.86 1.91 1.92 1.90 1.87 1.88 1.89 1.89 1.87 1.84 1.80 1.72 1.57 1.49 1.48 1.48 1.49 1.51 1.50 1.48 1.47 1.51 1.53 1.58 1.64 1.63 1.67 1.67 1.60 1.52 1.48 1.51 1.50 1.44 1.35 1.29 1.22 1.18 1.08
1.39 1.41 1.45 1.51 1.49 1.54 1.52 1.57 1.57 1.60 1.63 1.64 1.64 1.66 1.69 1.69 1.66 1.64 1.63 1.63 1.57 1.54 1.54 1.54 1.53 1.53 1.54 1.60 1.59 1.59 1.60 1.65 1.71 1.80 1.86 1.78 1.74 1.76 1.73 1.73 1.74 1.74 1.74 1.76 1.79 1.86 1.93 1.97 1.96 1.93 1.93 1.90 1.88 1.88 1.89 1.87 1.85 1.83 1.70 1.57 1.51 1.52 1.52 1.56 1.60 1.59 1.57 1.56 1.56 1.59 1.59 1.60 1.60 1.58 1.51 1.49 1.49 1.50 1.49 1.42 1.33 1.24 1.19 1.14 1.01
1.45 1.45 1.48 1.51 1.49 1.50 1.50 1.49 1.52 1.52 1.51 1.56 1.67 1.73 1.71 1.66 1.71 1.72 1.71 1.62 1.57 1.53 1.54 1.56 1.61 1.61 1.58 1.57 1.56 1.56 1.61 1.64 1.73 1.73 1.69 1.65 1.58 1.55 1.62 1.68 1.72 1.72 1.71 1.74 1.78 1.83 1.88 1.88 1.80 1.81 1.82 1.77 1.75 1.77 1.82 1.84 1.85 1.89 1.85 1.72 1.60 1.54 1.53 1.54 1.53 1.52 1.55 1.53 1.49 1.53 1.51 1.53 1.51 1.53 1.49 1.47 1.47 1.48 1.50 1.41 1.31 1.23 1.17 1.09 0.95
1.49 1.49 1.51 1.48 1.45 1.45 1.45 1.42 1.48 1.48 1.45 1.47 1.53 1.45 1.53 1.57 1.62 1.60 1.48 1.45 1.48 1.49 1.50 1.49 1.52 1.55 1.55 1.60 1.60 1.47 1.41 1.41 1.39 1.36 1.33 1.31 1.32 1.31 1.32 1.36 1.44 1.52 1.58 1.66 1.73 1.75 1.78 1.75 1.72 1.59 1.55 1.60 1.64 1.64 1.61 1.62 1.67 1.71 1.77 1.82 1.73 1.60 1.55 1.54 1.56 1.55 1.55 1.53 1.55 1.54 1.54 1.54 1.44 1.45 1.45 1.41 1.44 1.47 1.47 1.37 1.26 1.22 1.14 1.02 0.93
1.29 1.30 1.32 1.33 1.36 1.37 1.40 1.42 1.45 1.42 1.43 1.42 1.37 1.30 1.27 1.33 1.39 1.40 1.37 1.35 1.34 1.34 1.36 1.35 1.36 1.34 1.29 1.17 1.12 1.08 1.05 1.03 0.99 0.95 0.92 0.90 0.91 0.92 0.92 0.93 0.94 0.97 1.10 1.26 1.34 1.43 1.52 1.51 1.49 1.53 1.52 1.55 1.55 1.61 1.60 1.57 1.58 1.63 1.66 1.72 1.78 1.70 1.63 1.58 1.58 1.59 1.56 1.56 1.56 1.58 1.57 1.50 1.45 1.44 1.38 1.39 1.39 1.42 1.41 1.34 1.27 1.19 1.10 1.02 0.92
1.20 1.19 1.20 1.23 1.25 1.25 1.25 1.26 1.24 1.20 1.22 1.19 1.17 1.02 0.95 0.99 1.05 1.10 1.12 1.10 1.07 1.03 0.99 0.98 0.96 0.96 0.98 0.98 0.95 0.94 0.93 0.92 0.91 0.90 0.91 0.91 0.91 0.92 0.91 0.91 0.90 0.89 0.89 0.96 1.04 1.10 1.19 1.31 1.37 1.38 1.41 1.43 1.48 1.53 1.56 1.60 1.58 1.58 1.60 1.62 1.63 1.65 1.65 1.57 1.59 1.60 1.59 1.56 1.53 1.58 1.55 1.50 1.46 1.42 1.40 1.39 1.38 1.36 1.34 1.27 1.21 1.14 1.05 0.99 0.92
1.11 1.12 1.14 1.15 1.16 1.15 1.15 1.13 1.12 1.09 1.06 1.06 1.07 1.08 1.04 1.03 1.00 0.91 0.92 1.00 1.00 0.99 0.98 0.98 0.97 0.96 0.95 0.95 0.96 0.95 0.94 0.95 0.96 0.95 0.93 0.92 0.94 0.97 1.01 1.01 0.99 0.96 0.93 0.84 0.82 0.89 1.01 1.08 1.19 1.33 1.38 1.37 1.41 1.47 1.51 1.53 1.59 1.62 1.63 1.61 1.59 1.61 1.62 1.65 1.65 1.64 1.61 1.57 1.59 1.57 1.53 1.50 1.46 1.42 1.40 1.39 1.36 1.32 1.30 1.23 1.18 1.12 1.04 0.97 0.90
1.14 1.13 1.13 1.15 1.13 1.12 1.08 1.06 1.06 1.08 1.10 1.11 1.06 1.02 1.04 1.04 1.01 1.03 1.04 1.05 1.03 1.01 1.04 1.03 0.95 0.95 0.95 0.98 0.98 0.98 0.98 0.97 0.97 0.98 0.99 1.00 1.02 1.02 1.02 1.00 0.99 0.99 0.96 0.87 0.85 0.85 0.95 1.07 1.14 1.21 1.32 1.42 1.47 1.51 1.55 1.62 1.68 1.69 1.72 1.71 1.69 1.66 1.64 1.65 1.64 1.64 1.61 1.63 1.62 1.58 1.56 1.52 1.47 1.39 1.38 1.38 1.37 1.31 1.25 1.22 1.17 1.06 0.99 0.92 0.82
1.08 1.08 1.09 1.10 1.08 1.06 1.06 1.04 1.04 1.06 1.07 1.08 1.08 1.08 1.04 1.04 1.08 1.01 0.98 0.95 0.94 0.96 0.98 1.05 0.99 0.97 0.98 0.97 0.99 0.99 1.01 1.01 1.01 1.01 1.01 1.04 1.05 1.04 1.01 0.96 0.90 0.89 0.89 0.88 0.89 0.90 0.91 1.01 1.15 1.28 1.40 1.49 1.59 1.66 1.70 1.79 1.85 1.81 1.86 1.79 1.76 1.76 1.71 1.62 1.57 1.58 1.59 1.61 1.61 1.58 1.56 1.50 1.44 1.41 1.40 1.35 1.30 1.25 1.22 1.16 1.11 1.06 0.98 0.86 0.79
1.06 1.03 1.03 1.04 1.03 1.02 1.03 1.04 1.05 1.05 1.06 1.06 1.08 1.08 1.09 1.08 1.08 1.08 1.04 1.00 0.97 0.96 0.96 0.99 0.98 0.98 1.02 1.04 1.03 1.05 1.05 1.07 1.06 1.05 1.08 1.11 1.13 1.11 0.98 0.91 0.89 0.91 0.93 0.96 0.98 0.98 1.00 1.01 1.08 1.25 1.45 1.66 1.83 1.91 1.94 1.95 2.01 1.95 1.86 1.83 1.79 1.76 1.74 1.68 1.67 1.61 1.64 1.59 1.58 1.56 1.52 1.48 1.44 1.41 1.39 1.34 1.27 1.22 1.19 1.15 1.11 1.09 0.94 0.86 0.79
1.10 1.08 1.08 1.10 1.10 1.07 1.06 1.06 1.06 1.06 1.08 1.11 1.12 1.10 1.07 1.03 1.03 1.04 1.03 0.96 0.94 0.95 0.97 1.00 1.00 0.99 1.04 1.09 1.10 1.09 1.12 1.12 1.11 1.13 1.15 1.17 1.18 1.15 1.05 1.00 0.97 0.98 0.99 1.02 1.05 1.04 1.03 1.04 1.09 1.18 1.40 1.64 1.84 1.94 1.92 1.91 1.96 1.92 1.90 1.94 1.98 1.93 1.83 1.75 1.66 1.65 1.59 1.56 1.54 1.52 1.47 1.44 1.43 1.39 1.34 1.27 1.25 1.23 1.20 1.13 1.07 0.98 0.90 0.84 0.78
1.17 1.15 1.14 1.13 1.11 1.11 1.10 1.09 1.08 1.08 1.08 1.06 1.05 1.05 1.03 1.03 1.02 1.02 0.98 0.95 0.94 0.96 0.98 1.00 1.02 1.00 0.97 1.04 1.16 1.15 1.14 1.18 1.17 1.15 1.19 1.20 1.18 1.19 1.18 1.16 1.14 1.11 1.11 1.12 1.16 1.15 1.10 1.13 1.17 1.33 1.56 1.75 1.85 1.91 1.90 1.94 1.94 1.89 1.86 1.82 1.88 1.87 1.82 1.76 1.68 1.65 1.56 1.53 1.52 1.52 1.48 1.43 1.41 1.38 1.34 1.28 1.24 1.20 1.15 1.10 1.02 0.94 0.87 0.80 0.74
1.09 1.09 1.10 1.12 1.14 1.15 1.13 1.12 1.11 1.09 1.06 1.05 1.04 1.03 1.01 1.03 1.03 1.03 1.01 1.00 1.02 1.04 1.06 1.07 1.05 1.04 1.07 1.12 1.15 1.20 1.17 1.14 1.10 1.09 1.14 1.17 1.20 1.21 1.18 1.17 1.17 1.16 1.18 1.18 1.18 1.19 1.25 1.34 1.43 1.55 1.62 1.66 1.73 1.83 1.83 1.85 1.90 1.90 1.87 1.89 1.89 1.81 1.72 1.67 1.64 1.56 1.52 1.52 1.50 1.48 1.43 1.40 1.40 1.37 1.35 1.29 1.24 1.19 1.12 1.07 0.98 0.92 0.85 0.78 0.72
1.14 1.11 1.11 1.12 1.11 1.10 1.10 1.09 1.08 1.04 1.04 1.05 1.04 1.05 1.04 1.04 1.05 1.07 1.07 1.06 1.08 1.09 1.12 1.09 1.08 1.11 1.15 1.15 1.17 1.21 1.14 1.15 1.15 1.14 1.16 1.17 1.20 1.23 1.21 1.18 1.20 1.20 1.21 1.23 1.26 1.34 1.40 1.37 1.46 1.63 1.67 1.70 1.87 1.91 1.88 1.83 1.84 1.88 1.93 1.89 1.76 1.69 1.63 1.60 1.58 1.54 1.52 1.53 1.48 1.45 1.41 1.40 1.39 1.37 1.32 1.25 1.18 1.19 1.11 1.03 0.97 0.91 0.85 0.79 0.73
1.09 1.08 1.11 1.15 1.15 1.14 1.12 1.12 1.11 1.13 1.10 1.09 1.09 1.09 1.08 1.09 1.12 1.12 1.11 1.11 1.11 1.14 1.15 1.14 1.15 1.19 1.20 1.20 1.23 1.28 1.24 1.21 1.21 1.19 1.18 1.19 1.23 1.26 1.28 1.27 1.25 1.22 1.23 1.29 1.35 1.33 1.33 1.37 1.41 1.65 1.74 1.76 1.81 1.84 1.88 1.90 1.90 1.78 1.72 1.73 1.71 1.67 1.63 1.57 1.54 1.53 1.50 1.48 1.45 1.43 1.42 1.40 1.38 1.34 1.28 1.23 1.20 1.16 1.09 1.02 0.96 0.90 0.83 0.76 0.71
1.23 1.18 1.16 1.16 1.18 1.18 1.17 1.16 1.17 1.15 1.17 1.15 1.12 1.10 1.11 1.13 1.15 1.16 1.14 1.11 1.12 1.13 1.13 1.15 1.19 1.23 1.24 1.22 1.26 1.32 1.33 1.28 1.30 1.26 1.23 1.25 1.27 1.28 1.31 1.33 1.35 1.35 1.32 1.35 1.41 1.39 1.38 1.35 1.35 1.52 1.55 1.54 1.62 1.75 1.77 1.73 1.70 1.68 1.64 1.59 1.55 1.55 1.53 1.51 1.53 1.53 1.48 1.46 1.44 1.43 1.41 1.38 1.34 1.30 1.26 1.22 1.18 1.12 1.04 0.97 0.93 0.87 0.79 0.74 0.68
1.24 1.24 1.23 1.22 1.23 1.22 1.19 1.17 1.18 1.16 1.15 1.15 1.15 1.15 1.18 1.18 1.18 1.19 1.20 1.15 1.13 1.12 1.12 1.15 1.17 1.21 1.24 1.25 1.28 1.31 1.36 1.35 1.34 1.36 1.29 1.28 1.29 1.34 1.34 1.35 1.38 1.40 1.40 1.41 1.43 1.46 1.45 1.42 1.39 1.36 1.41 1.47 1.54 1.60 1.63 1.61 1.62 1.60 1.58 1.58 1.56 1.54 1.52 1.49 1.48 1.46 1.46 1.45 1.43 1.40 1.37 1.34 1.29 1.27 1.21 1.18 1.12 1.05 1.00 0.96 0.90 0.81 0.75 0.71 0.63
1.35 1.34 1.32 1.33 1.33 1.28 1.25 1.25 1.22 1.19 1.20 1.18 1.19 1.18 1.17 1.19 1.19 1.18 1.20 1.19 1.16 1.16 1.21 1.24 1.22 1.22 1.25 1.33 1.34 1.31 1.28 1.30 1.38 1.40 1.40 1.38 1.36 1.34 1.40 1.44 1.46 1.45 1.45 1.43 1.45 1.47 1.45 1.45 1.46 1.48 1.52 1.56 1.59 1.61 1.62 1.63 1.63 1.60 1.57 1.54 1.51 1.47 1.45 1.45 1.46 1.46 1.44 1.41 1.39 1.36 1.33 1.30 1.25 1.22 1.16 1.11 1.04 0.99 0.95 0.90 0.82 0.77 0.71 0.65 0.62
1.41 1.40 1.38 1.35 1.33 1.30 1.27 1.27 1.25 1.23 1.20 1.22 1.23 1.23 1.23 1.22 1.21 1.19 1.17 1.15 1.17 1.20 1.25 1.27 1.29 1.29 1.29 1.31 1.32 1.28 1.27 1.28 1.30 1.34 1.37 1.39 1.42 1.38 1.41 1.49 1.50 1.50 1.46 1.43 1.45 1.46 1.45 1.45 1.45 1.46 1.49 1.54 1.57 1.59 1.60 1.60 1.59 1.57 1.54 1.51 1.48 1.47 1.47 1.47 1.46 1.47 1.46 1.41 1.36 1.32 1.28 1.24 1.20 1.14 1.08 1.08 1.05 0.97 0.89 0.84 0.79 0.71 0.66 0.63 0.61
1.36 1.33 1.29 1.26 1.22 1.20 1.20 1.19 1.18 1.17 1.15 1.16 1.17 1.18 1.20 1.21 1.21 1.20 1.19 1.21 1.22 1.24 1.26 1.29 1.34 1.30 1.27 1.26 1.29 1.32 1.32 1.30 1.29 1.30 1.30 1.32 1.39 1.46 1.51 1.50 1.49 1.47 1.44 1.44 1.44 1.43 1.43 1.42 1.40 1.39 1.41 1.43 1.47 1.51 1.54 1.56 1.57 1.57 1.56 1.53 1.49 1.46 1.46 1.45 1.45 1.43 1.40 1.35 1.29 1.23 1.21 1.18 1.09 1.07 1.06 1.01 0.96 0.93 0.86 0.80 0.73 0.69 0.65 0.62 0.59
1.32 1.29 1.25 1.21 1.17 1.15 1.15 1.14 1.14 1.14 1.13 1.12 1.11 1.10 1.09 1.11 1.13 1.14 1.15 1.18 1.20 1.23 1.29 1.32 1.31 1.28 1.25 1.26 1.28 1.31 1.35 1.35 1.35 1.33 1.34 1.36 1.39 1.42 1.44 1.44 1.45 1.46 1.46 1.45 1.42 1.41 1.40 1.41 1.43 1.42 1.42 1.42 1.44 1.44 1.45 1.45 1.45 1.45 1.45 1.43 1.41 1.38 1.36 1.36 1.36 1.35 1.32 1.27 1.23 1.18 1.14 1.08 1.04 1.01 0.99 0.97 0.90 0.85 0.80 0.76 0.72 0.70 0.67 0.62 0.56
1.28 1.23 1.18 1.16 1.15 1.14 1.13 1.14 1.14 1.14 1.14 1.12 1.10 1.08 1.07 1.08 1.09 1.11 1.12 1.13 1.13 1.16 1.18 1.21 1.23 1.25 1.29 1.31 1.34 1.35 1.36 1.35 1.37 1.38 1.41 1.42 1.43 1.43 1.42 1.41 1.39 1.39 1.38 1.38 1.39 1.39 1.39 1.39 1.39 1.40 1.39 1.38 1.37 1.36 1.36 1.37 1.36 1.34 1.33 1.32 1.30 1.28 1.26 1.24 1.22 1.20 1.18 1.16 1.12 1.09 1.06 1.02 1.01 0.99 0.95 0.89 0.84 0.82 0.77 0.74 0.73 0.71 0.69 0.64 0.57
1.17 1.13 1.11 1.11 1.11 1.10 1.10 1.09 1.08 1.08 1.09 1.09 1.07 1.05 1.05 1.04 1.04 1.05 1.08 1.10 1.12 1.14 1.16 1.17 1.19 1.23 1.26 1.29 1.33 1.34 1.34 1.34 1.32 1.31 1.32 1.36 1.39 1.41 1.40 1.39 1.37 1.36 1.36 1.35 1.35 1.35 1.34 1.33 1.30 1.29 1.27 1.26 1.25 1.24 1.22 1.22 1.21 1.20 1.19 1.18 1.18 1.16 1.16 1.16 1.13 1.10 1.07 1.06 1.03 1.01 0.99 0.97 0.94 0.92 0.88 0.84 0.81 0.80 0.76 0.75 0.73 0.70 0.66 0.63 0.56
1.05 1.02 1.00 0.99 0.98 0.99 1.00 1.01 1.01 1.01 1.02 1.01 0.99 0.98 0.99 0.99 0.99 1.00 1.01 1.04 1.07 1.10 1.13 1.15 1.17 1.20 1.23 1.24 1.23 1.25 1.27 1.30 1.31 1.31 1.31 1.31 1.32 1.34 1.35 1.36 1.36 1.37 1.35 1.34 1.32 1.32 1.32 1.29 1.26 1.21 1.20 1.19 1.18 1.16 1.16 1.15 1.14 1.14 1.13 1.13 1.11 1.09 1.07 1.05 1.03 1.02 1.02 1.02 1.01 0.99 0.98 0.95 0.93 0.87 0.85 0.83 0.82 0.79 0.76 0.74 0.72 0.69 0.64 0.58 0.53
1.06 1.03 1.00 0.98 0.96 0.95 0.93 0.92 0.92 0.94 0.94 0.93 0.92 0.91 0.92 0.93 0.94 0.95 0.97 0.97 0.98 1.02 1.06 1.10 1.14 1.17 1.20 1.22 1.24 1.25 1.27 1.29 1.30 1.30 1.30 1.31 1.33 1.37 1.40 1.41 1.41 1.39 1.40 1.38 1.37 1.34 1.30 1.26 1.22 1.21 1.19 1.19 1.18 1.17 1.14 1.11 1.10 1.07 1.03 0.99 0.97 0.94 0.93 0.93 0.93 0.92 0.94 0.92 0.93 0.92 0.90 0.88 0.85 0.81 0.80 0.81 0.79 0.77 0.75 0.72 0.68 0.65 0.61 0.54 0.50
Wind_Speed
29 29 28 28 28 28 27 27 26 26 26 25 25 24 24 24 23 22 22 22 21 21 21 21 21 21 21 21 20 20 19 19 19 18 19 19 18 18 17 17 16 15 14 13 12 11 11 11 11 10 9 9 8 8 8 9 9 9 9 9 10 10 10 10 10 10 10 10 11 11 11 11 12 12 12 12 13 13 14 14 15 16 16 17 17
28 28 28 28 28 28 27 27 26 26 26 25 25 25 24 24 24 23 22 22 22 22 22 22 22 22 22 21 21 21 21 20 20 20 20 20 20 19 19 18 18 17 16 15 14 13 12 12 12 12 11 11 10 10 9 9 10 10 10 10 10 10 10 10 10 11 11 11 11 12 12 12 12 13 13 13 14 14 15 15 16 16 17 17 18
27 27 27 27 27 27 27 26 26 26 26 25 25 25 25 24 24 23 23 22 22 23 23 22 22 23 23 22 22 22 22 21 21 21 21 21 21 21 20 20 19 19 18 17 16 15 14 13 13 13 13 12 12 12 11 10 10 10 10 10 9 9 9 10 10 11 12 12 12 12 13 13 13 13 14 14 15 15 15 16 17 17 17 18 18
27 27 27 27 27 27 27 26 26 26 26 26 26 25 25 24 24 24 23 23 22 23 23 23 23 23 23 23 23 23 23 22 22 22 22 22 22 22 21 21 21 21 20 19 18 17 16 15 15 14 14 14 14 14 13 12 11 11 10 10 10 10 9 10 11 12 12 13 13 13 13 13 14 14 15 15 16 16 17 17 17 18 18 18 19
27 27 27 27 27 27 27 27 27 27 27 26 26 26 25 24 23 24 24 24 23 23 23 23 23 23 23 23 23 23 23 23 23 23 22 22 23 23 23 22 22 22 22 21 20 19 18 18 17 16 16 15 15 15 15 14 13 12 12 11 11 11 11 11 12 12 12 13 13 13 13 14 14 15 15 16 16 17 18 18 18 19 19 19 19
27 27 27 27 27 27 27 27 27 27 27 27 26 26 25 24 23 23 24 24 24 23 23 23 23 23 23 23 23 24 24 24 24 24 24 23 23 24 24 23 23 23 23 22 22 21 21 20 19 18 18 17 17 16 16 16 15 14 13 13 12 12 12 12 12 12 13 13 13 13 14 14 15 15 16 16 17 17 18 19 19 19 19 19 19
28 28 27 27 27 27 26 26 26 27 27 27 26 26 25 24 24 23 23 23 24 23 23 23 24 24 24 24 24 24 24 24 24 24 24 24 24 24 25 24 24 24 24 24 23 23 23 22 21 20 20 19 18 18 17 17 16 15 15 15 14 13 13 13 13 13 13 13 14 14 15 15 16 16 17 17 18 18 19 19 19 19 19 20 20
28 28 28 28 27 27 26 26 26 26 26 26 26 26 25 24 24 23 23 23 24 24 23 23 24 24 24 24 24 24 24 24 24 25 25 25 25 25 25 25 25 25 25 25 25 25 24 24 23 23 22 21 20 19 19 18 17 17 16 16 16 15 15 14 13 14 14 14 14 15 15 16 16 17 17 18 18 19 19 19 20 20 20 20 21
28 28 28 28 28 27 27 26 26 26 26 26 26 25 25 24 24 23 23 23 23 23 23 23 23 24 24 24 24 24 24 25 25 25 25 25 25 25 26 26 26 26 26 26 26 26 26 25 25 24 24 23 22 22 21 20 19 18 18 17 17 17 17 15 15 15 15 15 15 16 16 17 17 17 17 18 19 19 19 20 20 20 20 21 21
28 28 29 29 28 28 27 27 26 26 26 26 25 25 25 24 24 23 23 23 22 22 23 23 23 23 24 24 24 24 24 25 25 26 26 25 25 26 26 26 27 27 27 27 27 27 27 26 26 26 26 25 25 24 23 22 21 20 19 19 18 18 18 18 17 16 16 16 16 17 17 17 18 18 18 19 19 19 19 19 20 20 21 22 22
28 28 28 28 29 28 28 27 27 26 26 26 26 25 25 25 24 23 23 23 22 22 22 22 23 22 23 23 24 24 24 25 25 26 26 26 26 26 26 27 27 28 28 28 28 28 28 28 27 27 27 27 26 26 25 25 24 23 21 21 20 20 20 20 19 18 18 18 18 18 18 19 19 19 19 20 20 20 20 19 20 20 21 22 23
27 28 28 28 28 28 28 28 27 27 27 26 26 26 25 25 25 24 24 24 23 22 22 22 23 22 22 22 23 23 24 24 25 26 27 28 28 27 27 27 28 29 29 29 29 29 29 29 29 28 28 28 28 28 27 27 26 25 24 23 23 22 22 21 21 20 20 19 19 19 20 19 20 20 20 20 20 21 20 20 21 21 22 23 23
25 27 28 28 28 28 28 28 28 27 27 27 26 26 26 26 25 25 25 24 24 23 23 23 23 23 22 22 22 23 23 24 25 26 27 28 28 28 28 28 29 29 30 30 31 31 31 31 30 29 29 29 29 29 29 29 29 28 27 26 25 25 24 23 23 22 22 21 21 21 21 20 21 21 21 21 21 21 21 21 22 22 22 23 24
25 26 27 28 28 28 28 28 28 28 27 27 27 27 26 26 26 26 25 25 25 25 25 24 24 24 24 23 23 23 23 23 24 25 26 27 28 28 28 28 29 29 30 31 31 31 32 32 32 31 30 30 30 30 30 30 30 30 29 28 27 26 26 25 25 25 24 23 23 23 23 22 22 22 22 22 22 22 22 22 22 23 23 24 24
24 25 27 28 28 28 28 28 28 28 28 27 27 27 27 27 27 27 26 26 26 25 25 26 25 25 25 26 25 25 24 24 25 26 27 28 28 29 29 30 30 30 30 31 31 32 32 32 33 33 32 32 32 31 31 31 31 31 31 31 30 29 28 28 27 27 27 26 25 25 24 24 24 23 23 23 23 23 23 23 23 23 24 24 25
25 25 26 27 27 28 28 28 29 28 28 28 28 28 27 27 27 27 27 27 26 26 26 26 27 27 27 27 27 27 27 26 26 27 28 29 29 30 31 31 31 31 31 31 32 32 32 33 33 33 34 33 33 33 33 32 32 33 33 32 31 31 30 30 29 29 29 29 28 27 26 26 25 25 24 24 24 24 24 24 24 24 24 25 25
25 25 25 27 27 27 28 28 29 29 28 28 28 28 28 28 28 28 28 27 27 26 26 26 27 27 28 28 29 30 29 29 29 29 29 30 30 31 32 32 32 32 33 33 33 33 34 34 34 34 35 35 34 34 35 34 34 34 34 33 33 32 31 31 31 31 31 31 31 30 29 27 26 26 25 25 24 24 24 24 24 25 25 25 26
25 25 26 26 27 27 28 28 28 28 28 28 28 27 27 28 28 28 28 28 28 27 26 26 27 28 29 30 31 31 31 31 31 31 31 31 32 32 33 34 34 34 34 34 35 35 36 36 36 36 36 35 35 35 36 36 35 35 35 35 34 34 33 32 31 32 33 33 32 31 30 29 28 27 26 26 25 25 25 25 25 25 26 26 26
25 26 26 26 27 27 27 28 28 28 28 27 27 27 27 27 27 27 28 28 29 28 28 28 28 29 30 31 32 32 32 32 32 32 32 33 33 34 34 35 35 36 36 37 37 37 38 38 39 39 39 37 37 37 37 37 37 37 37 37 36 35 34 33 32 32 32 33 33 32 31 31 30 29 28 28 27 27 26 26 25 25 26 27 26
24 25 25 25 25 26 26 26 27 27 27 27 27 27 27 27 27 28 28 28 29 29 29 29 29 30 30 31 32 33 33 33 33 33 34 34 34 35 35 36 36 37 37 38 38 39 40 39 39 40 41 40 40 39 39 39 39 39 39 39 38 36 35 34 33 32 32 32 33 34 33 32 32 31 30 29 29 28 27 27 26 26 26 27 26
24 24 24 24 24 25 25 25 25 26 26 26 26 26 27 27 27 28 28 28 28 29 29 29 30 30 30 30 31 31 33 33 33 34 34 35 35 36 37 37 37 38 38 39 39 40 41 41 41 41 42 42 42 42 41 41 41 40 41 41 40 37 36 35 34 34 33 33 33 34 33 33 32 32 31 30 30 29 28 27 27 27 27 26 26
23 23 24 24 24 24 24 24 24 24 25 25 25 26 26 26 26 26 27 27 28 28 29 29 30 30 30 31 31 31 32 33 33 34 34 35 36 37 38 38 38 39 39 40 41 41 41 42 43 43 43 43 43 44 44 44 43 42 42 42 40 39 37 36 36 35 35 34 33 33 32 32 32 32 31 30 29 29 29 28 28 28 27 26 26
23 23 23 24 23 23 23 23 23 23 24 24 24 25 25 26 26 26 26 27 27 28 29 29 29 30 31 31 32 32 32 33 33 34 34 35 36 38 39 39 39 40 41 42 42 42 42 42 43 43 43 44 44 45 45 45 45 44 43 42 41 40 39 38 37 37 36 35 34 33 33 32 32 32 31 29 29 28 28 28 28 27 27 27 27
22 22 23 23 23 23 23 23 23 23 23 24 24 24 24 25 25 26 26 27 27 28 28 29 30 30 31 32 32 32 32 33 34 34 35 36 38 39 40 41 41 41 42 43 43 43 42 42 43 43 43 44 44 45 46 46 46 46 44 43 42 41 40 39 38 38 37 36 35 34 33 32 32 32 31 30 29 28 27 27 28 28 27 26 26
22 22 22 23 23 23 22 22 22 23 23 24 25 25 25 25 25 26 26 27 28 29 29 30 30 31 31 32 32 33 33 34 34 35 35 36 38 39 41 42 43 44 44 44 45 45 45 45 44 44 44 44 45 45 46 46 46 46 45 44 42 41 40 39 39 38 38 37 36 35 34 32 32 32 30 29 28 27 27 27 28 27 26 25 25
23 22 22 22 23 23 23 23 23 23 24 24 24 25 25 26 26 26 27 28 29 29 30 30 30 31 32 33 33 33 34 34 35 36 36 37 39 40 41 43 44 46 46 47 47 48 48 48 46 46 46 46 46 47 47 47 47 48 47 45 44 43 42 41 40 39 38 37 36 36 35 33 32 32 30 29 28 27 26 26 26 26 25 25 25
22 22 22 22 22 23 23 23 23 23 24 24 24 25 26 26 27 27 28 29 29 29 29 30 30 31 32 33 34 34 34 35 35 36 36 37 38 40 42 44 45 46 48 48 48 49 49 49 49 49 48 48 49 49 50 49 49 49 49 48 47 45 44 43 42 40 39 38 37 36 35 33 32 32 30 29 28 28 27 26 26 25 25 24 25
21 21 21 21 21 22 22 22 22 22 23 24 24 25 26 27 27 27 28 28 29 29 29 30 31 32 32 33 34 34 35 35 35 35 36 37 38 39 41 43 45 47 48 49 50 50 51 50 50 51 51 50 51 51 51 51 51 51 51 50 49 47 46 45 43 41 40 38 37 36 35 34 33 32 30 29 29 29 27 27 26 25 24 24 25
20 20 20 20 20 20 21 21 21 22 22 23 23 23 24 25 25 26 26 27 27 28 29 30 31 31 32 33 34 35 36 37 37 38 39 41 42 43 44 45 46 48 50 51 52 53 52 51 51 52 52 52 52 52 51 51 51 52 52 52 50 48 47 46 44 43 41 39 38 37 36 35 34 32 31 30 30 29 28 27 26 25 24 25 25
19 19 19 19 20 20 20 21 21 21 22 22 22 22 23 23 24 24 25 26 27 28 29 30 32 33 33 34 35 36 38 39 40 42 43 44 46 47 48 49 50 51 52 53 53 54 54 54 54 54 55 55 55 54 53 53 52 52 53 52 51 49 48 47 45 43 42 41 40 38 36 34 32 32 31 31 30 28 28 27 26 25 25 25 25
19 19 19 19 19 20 20 21 21 21 22 22 22 22 23 24 24 25 26 27 28 29 30 31 32 33 34 34 35 37 38 39 41 42 44 45 47 48 50 51 52 53 54 53 53 54 55 56 57 57 57 57 57 57 56 55 55 54 54 53 53 51 50 49 47 44 43 42 41 39 36 34 32 31 32 31 29 28 27 27 26 26 26 25 25
19 19 19 19 19 19 20 20 20 21 21 22 22 23 23 24 25 25 26 27 28 29 29 30 31 31 32 33 35 36 38 40 42 44 45 47 48 50 51 52 53 53 54 54 54 55 56 57 58 59 59 59 60 60 59 58 57 56 56 55 54 53 51 49 48 46 45 43 42 40 37 35 32 31 31 31 29 27 27 27 26 26 26 25 24
19 19 19 20 20 20 20 20 21 21 22 22 23 23 24 25 26 26 27 28 28 29 29 30 30 31 33 34 36 37 40 41 43 45 46 48 49 50 51 52 53 53 53 54 55 57 57 58 59 61 61 62 62 62 62 61 60 59 58 58 56 53 51 49 48 47 46 44 42 40 38 36 33 31 31 30 29 28 28 27 26 26 25 25 24
19 19 20 20 20 20 21 21 21 22 22 23 24 24 25 26 26 27 28 28 29 30 30 31 32 33 34 35 37 38 40 42 43 44 45 46 47 48 49 50 50 51 50 51 53 55 57 58 60 61 63 64 64 65 64 64 62 60 59 59 57 55 52 49 48 47 46 43 41 40 38 36 34 31 30 30 29 29 28 26 25 25 25 24 23
20 20 20 20 21 21 21 22 22 22 23 23 24 25 25 26 26 27 28 29 30 30 31 32 33 34 35 36 37 38 40 41 42 43 44 45 46 47 47 47 47 47 47 48 50 52 55 57 59 60 62 64 65 65 65 64 62 60 59 58 56 54 52 49 48 47 46 43 41 38 36 35 34 32 30 30 29 29 27 25 25 25 24 22 22
20 20 20 20 21 21 22 22 22 23 23 23 24 24 25 26 27 28 29 30 30 31 31 32 33 34 34 35 36 37 38 40 41 42 42 43 44 44 43 44 44 45 45 46 48 50 52 55 57 59 61 62 60 58 58 56 54 53 53 54 53 51 49 48 46 45 44 42 40 37 35 34 33 32 31 30 30 29 28 26 26 25 23 22 22
19 20 20 20 20 21 21 21 22 22 22 23 24 25 26 26 27 28 29 30 30 30 31 32 32 33 33 34 35 36 37 39 39 39 39 40 40 40 40 41 42 42 43 44 46 48 50 52 54 55 56 53 49 47 47 47 47 46 46 47 48 46 44 44 43 41 40 39 37 37 35 33 32 32 31 30 30 29 28 27 26 25 23 22 22
19 20 20 20 20 21 21 21 22 22 23 23 24 25 26 26 27 28 28 28 29 29 30 31 31 32 32 33 34 35 36 36 37 36 36 36 37 37 37 37 38 39 40 41 43 43 45 47 48 46 40 35 33 36 38 39 40 41 41 42 42 40 38 39 38 37 36 35 35 35 34 32 31 31 30 29 29 28 27 27 25 24 22 21 21
19 20 20 20 20 21 21 22 22 23 23 24 24 25 25 25 26 26 27 27 28 28 29 30 30 31 32 33 34 34 34 34 34 33 33 33 34 33 33 33 33 34 35 36 35 34 36 40 39 31 23 19 18 24 30 31 32 34 37 38 37 36 35 35 34 33 32 32 33 33 32 30 30 29 28 28 28 27 27 26 24 23 22 21 21
20 20 20 21 21 21 22 22 23 23 23 24 24 24 24 25 25 26 26 27 27 28 28 29 29 29 30 31 32 32 32 32 31 31 30 30 30 30 30 30 30 30 30 30 29 27 28 32 31 19 13 12 10 14 21 24 25 29 32 34 33 32 31 30 30 29 28 28 28 29 29 28 28 28 28 28 28 27 26 24 23 22 22 22 21
20 20 20 21 21 22 22 22 22 22 23 23 23 24 24 25 25 26 26 26 27 27 27 28 28 28 28 29 30 30 30 29 29 28 28 28 27 27 28 28 26 25 25 25 25 23 23 24 23 13 2 7 7 11 17 21 25 27 28 28 27 27 26 26 26 26 25 25 25 26 26 26 26 26 26 26 26 25 24 23 22 22 22 21 20
21 21 21 21 21 21 21 21 22 22 22 23 23 24 25 25 26 26 26 26 26 27 27 27 27 27 27 28 28 28 28 28 27 27 26 26 26 26 25 25 24 23 22 21 20 19 19 18 17 11 8 8 8 13 19 21 22 22 22 21 21 21 21 22 22 23 23 22 23 23 23 23 23 23 23 23 23 23 23 22 22 22 21 21 20
21 21 21 21 21 21 21 21 22 22 23 23 24 24 25 25 25 25 25 25 26 26 26 26 26 26 26 26 26 26 26 26 26 26 25 25 25 24 23 22 21 21 20 19 18 17 16 15 13 8 4 2 2 8 12 14 14 16 16 17 18 18 20 21 21 21 22 21 21 21 20 20 21 21 21 22 22 22 22 22 21 21 21 20 20
20 20 20 20 20 20 20 21 21 22 22 22 23 23 23 23 23 23 24 24 24 25 25 25 25 25 25 24 24 24 24 24 25 24 23 23 23 22 21 19 18 18 17 17 16 15 14 13 11 9 7 5 3 4 6 8 10 12 13 14 15 16 17 18 19 20 21 20 20 19 19 19 20 20 20 21 21 22 22 21 21 20 20 20 19
19 19 19 19 19 19 19 20 20 20 21 21 21 22 22 21 21 21 22 22 22 23 23 23 23 23 23 22 22 22 22 22 22 22 21 21 20 20 18 17 15 15 15 15 15 14 12 11 9 7 6 5 3 3 4 6 8 9 11 12 13 14 15 16 17 18 19 19 18 18 18 19 20 20 21 21 21 21 21 21 20 20 20 19 19
19 19 19 19 19 18 18 18 18 19 19 20 20 20 20 20 21 21 21 21 21 21 21 21 21 21 22 22 21 21 21 20 20 20 19 18 17 16 16 15 15 15 15 14 13 12 11 9 7 6 5 5 4 4 4 6 7 9 10 11 13 13 14 15 15 16 17 17 17 18 19 19 19 20 21 21 21 21 21 20 20 20 20 19 19
19 19 19 18 18 18 18 18 18 18 18 19 19 19 19 20 20 20 21 21 21 21 21 21 21 21 21 21 20 20 19 18 18 18 17 16 16 15 15 15 15 15 14 13 12 11 10 9 7 6 6 6 6 5 5 6 7 8 9 10 11 12 12 13 13 14 15 16 16 17 18 19 19 20 20 20 20 20 20 20 20 20 20 20 20
19 18 18 17 17 17 17 17 17 18 18 18 18 18 19 19 19 20 20 20 20 20 20 20 20 20 20 19 19 18 18 17 17 16 16 15 14 14 14 14 15 14 14 13 12 11 9 8 7 7 7 7 7 7 7 7 7 7 8 9 10 10 11 12 13 14 15 16 16 17 18 18 19 19 19 19 19 19 20 20 20 20 21 20 20
17 17 16 16 16 16 16 17 17 17 18 18 17 17 18 18 19 19 19 19 19 19 19 19 19 19 19 18 18 17 17 17 17 16 16 15 15 15 14 14 14 13 13 12 11 10 9 8 7 7 6 7 7 6 6 6 6 7 9 10 10 10 11 12 13 14 15 16 16 16 17 17 18 18 18 19 20 20 21 21 21 21 21 21 20
15 15 15 15 15 15 16 16 17 17 17 17 17 17 17 17 18 18 18 18 18 18 18 18 18 18 18 18 17 17 16 16 16 16 16 16 15 15 14 14 13 13 13 12 12 11 9 8 7 6 6 6 7 7 7 8 8 9 10 11 11 11 12 13 14 14 15 15 15 16 16 17 18 19 20 20 20 21 21 21 22 22 21 21 20
14 14 14 14 14 14 15 15 15 16 16 16 16 16 16 16 16 17 17 17 17 17 16 16 16 17 17 17 17 16 16 16 16 16 15 15 14 14 14 14 13 13 13 13 12 12 11 10 8 7 7 8 8 9 9 10 10 11 11 11 11 12 12 13 14 14 15 15 16 16 17 17 18 19 20 21 21 21 21 22 22 21 21 20 20
Wind_Direction
216 217 218 219 220 221 222 223 224 225 226 227 229 231 232 233 234 235 236 237 238 238 238 239 238 238 238 239 239 240 241 242 243 241 239 238 239 240 240 240 241 242 244 246 247 249 252 254 257 261 265 270 274 279 283 288 292 294 295 294 292 290 287 284 286 291 293 291 291 293 294 295 295 294 293 295 296 297 299 299 300 301 303 303 302
217 218 219 220 220 221 223 224 225 226 227 228 229 231 232 234 235 236 237 239 239 239 239 240 240 239 239 239 240 240 241 242 244 243 241 239 239 240 240 240 241 243 244 245 246 248 251 254 257 259 263 266 270 275 280 284 288 290 292 294 293 290 287 283 283 288 291 291 289 290 292 292 293 294 294 294 296 298 299 301 301 302 303 304 305
218 218 219 220 221 222 223 224 225 226 227 229 230 231 232 234 235 237 238 239 240 241 240 240 240 240 240 240 240 241 241 242 244 245 243 241 240 241 241 241 241 242 244 246 246 247 249 253 256 258 262 265 268 273 276 279 283 286 289 292 292 289 285 283 284 287 290 292 291 290 291 291 291 293 294 295 296 297 299 300 301 302 303 304 306
217 219 219 220 221 222 223 224 225 226 227 229 230 231 233 235 237 238 238 239 240 241 242 241 241 241 240 240 240 241 242 243 244 245 245 243 241 241 241 241 242 242 244 246 247 248 249 252 256 258 261 264 267 271 273 273 276 280 283 286 287 287 285 284 284 286 290 293 293 292 291 292 291 292 294 294 295 296 297 298 299 299 300 302 305
217 219 220 221 222 223 224 225 226 227 228 229 230 232 233 234 237 238 239 239 239 240 242 242 241 241 241 241 241 242 243 243 244 245 245 244 242 241 242 242 243 243 244 246 247 248 250 253 256 258 259 262 266 269 270 270 272 275 278 279 281 283 284 285 284 285 288 291 293 293 292 292 292 293 293 293 295 296 296 297 297 297 298 299 302
217 220 221 221 221 223 224 225 227 228 229 230 231 232 233 234 235 237 239 240 240 240 241 242 242 242 242 242 242 242 243 244 245 245 245 244 242 242 242 243 244 244 245 246 247 248 250 253 255 258 259 261 264 267 269 269 270 272 273 274 276 280 282 283 283 283 284 287 290 292 292 292 291 292 292 292 294 295 296 297 297 296 297 299 301
218 220 222 222 222 223 224 225 227 228 229 231 232 232 233 233 235 236 239 240 241 240 240 241 243 242 242 242 243 243 244 244 245 245 245 244 243 243 243 244 245 246 246 246 247 248 250 252 255 257 259 260 262 265 267 268 268 269 271 272 273 276 279 281 281 281 282 284 287 289 291 292 291 291 292 293 293 295 296 297 297 297 297 299 300
219 220 222 223 223 224 225 226 227 228 229 231 231 232 232 233 235 236 237 239 241 241 240 241 242 243 243 243 243 244 245 245 245 245 244 245 244 244 244 245 246 247 248 248 248 249 250 252 254 256 258 260 261 263 265 266 267 268 268 270 271 272 275 278 279 280 281 283 285 288 290 292 292 292 294 294 294 295 296 296 296 297 297 298 300
219 220 222 224 225 225 225 226 227 228 229 230 231 232 232 233 235 236 237 238 240 241 241 241 242 243 244 244 245 245 246 246 246 245 245 245 245 245 245 246 246 247 249 249 250 250 251 252 254 255 258 259 260 261 262 264 265 267 267 267 268 270 272 274 276 278 280 282 284 287 289 291 292 293 293 294 295 296 297 297 296 296 296 297 299
220 221 222 224 225 225 226 227 228 229 229 230 231 232 233 235 236 236 237 238 239 240 241 241 242 243 244 245 246 246 247 247 246 245 245 245 246 246 247 247 247 248 249 250 251 251 251 252 253 254 256 258 259 260 260 261 263 265 266 266 267 268 270 271 273 276 278 281 283 286 288 290 291 292 293 294 295 296 297 297 296 295 296 298 300
221 221 222 224 225 225 226 227 228 229 230 230 232 233 234 236 237 237 237 238 239 240 240 241 241 242 243 245 246 247 248 248 247 245 246 246 247 248 248 248 248 249 250 251 252 252 252 253 253 254 255 257 258 259 259 260 261 262 264 265 265 267 269 270 271 273 276 278 282 285 287 289 290 292 293 294 294 295 296 296 296 296 297 298 300
222 222 223 224 224 225 227 228 229 230 230 231 232 233 235 236 237 237 238 238 239 239 240 241 241 242 243 244 246 248 249 248 247 246 246 247 247 249 250 251 251 251 251 252 252 253 253 253 254 255 255 255 256 258 259 259 260 261 262 263 264 265 267 270 271 273 274 276 279 282 285 288 290 291 293 293 293 293 295 296 296 296 297 298 300
224 223 223 224 225 226 227 229 229 231 231 232 233 234 235 236 237 237 238 238 239 240 240 241 243 244 245 245 246 249 251 250 248 248 248 248 248 250 252 253 253 253 254 254 254 254 254 254 255 255 255 255 255 256 257 258 260 260 261 262 263 264 266 268 271 273 275 276 278 280 283 287 289 290 292 292 291 291 293 295 297 297 298 299 301
225 224 223 224 225 227 228 229 230 230 231 232 233 234 235 236 236 237 238 239 240 241 242 243 245 246 247 248 248 250 252 251 250 250 250 250 250 251 253 255 255 256 255 256 256 256 255 256 256 256 256 255 255 255 256 257 258 260 261 261 262 264 265 266 268 271 274 276 278 279 281 284 287 289 290 290 289 290 291 294 297 298 299 300 302
226 225 225 225 226 227 228 229 229 230 231 232 233 234 235 236 236 237 239 240 241 243 244 246 247 248 249 250 251 253 253 252 251 252 252 252 253 254 255 257 258 258 257 257 257 258 257 257 257 257 256 256 255 255 256 257 258 259 260 260 261 263 264 265 266 269 271 273 276 279 281 282 284 287 288 289 289 289 291 294 297 298 299 300 302
227 226 226 226 227 227 228 228 229 229 230 232 233 234 236 236 237 238 239 241 243 245 247 248 249 250 252 253 254 255 256 254 253 254 255 255 255 256 257 258 259 259 259 259 259 259 258 258 258 258 257 258 256 255 256 258 259 259 260 260 261 263 264 265 266 267 269 271 273 276 280 283 283 284 285 288 289 290 291 293 295 297 299 300 301
227 227 226 226 227 228 228 228 229 230 231 233 234 235 236 237 239 240 241 242 244 246 248 249 251 252 254 255 256 257 258 257 256 256 257 257 258 259 258 259 261 261 261 260 260 261 260 259 259 259 259 258 258 256 256 258 259 260 260 261 261 263 264 265 265 266 268 270 272 274 277 279 281 282 282 284 287 289 290 291 293 296 298 300 301
227 226 225 226 227 228 229 229 230 232 233 234 236 237 238 239 240 241 243 244 245 246 248 250 253 255 256 257 258 259 260 259 257 257 258 257 258 259 259 260 262 262 261 262 262 262 261 259 259 259 260 260 259 257 256 257 259 260 261 261 261 262 264 265 266 266 267 268 271 273 274 275 278 279 280 280 282 285 287 289 292 294 296 298 300
226 225 225 227 228 229 230 231 232 234 235 236 237 238 239 241 242 243 245 246 247 248 250 252 254 256 258 259 259 260 261 261 260 259 259 258 259 260 261 261 262 262 263 263 263 263 262 261 260 260 260 260 259 258 257 257 258 259 260 261 261 262 263 263 264 265 266 266 269 271 272 273 274 275 277 278 280 282 283 286 290 293 295 297 297
224 225 226 227 228 229 231 232 234 235 236 237 238 240 241 243 244 245 247 248 250 250 251 253 255 257 259 260 260 261 262 263 262 261 260 260 260 261 262 262 263 264 264 265 265 264 263 262 262 261 260 260 260 259 258 257 257 258 259 260 261 262 262 262 262 263 265 266 267 268 269 271 272 273 274 276 278 279 280 283 287 291 293 296 296
224 225 226 227 228 229 231 233 235 236 238 239 240 241 243 244 245 246 248 249 250 251 252 254 257 259 260 261 262 263 263 264 264 263 262 262 261 261 262 264 265 265 265 265 265 265 264 264 263 262 261 260 260 260 259 258 258 259 259 260 261 261 261 261 261 262 263 265 267 267 268 269 271 271 273 274 275 276 277 280 284 287 290 294 295
223 224 225 226 227 229 232 234 235 237 239 240 241 241 243 244 245 246 248 249 250 252 254 256 259 261 262 263 264 265 265 265 265 264 264 264 263 262 263 265 266 265 266 266 266 267 266 266 264 263 261 260 259 260 259 258 258 260 260 260 259 259 260 260 261 260 261 263 265 267 267 268 269 269 271 273 274 275 275 277 281 284 286 290 293
223 224 226 227 228 230 232 234 236 239 239 239 240 242 243 245 245 247 249 251 253 254 256 258 260 263 264 265 266 267 267 266 267 266 265 265 265 265 265 266 266 266 266 267 267 268 268 267 266 264 262 260 260 259 259 258 257 259 259 259 258 258 259 260 260 258 258 260 263 265 266 266 267 268 269 271 272 274 275 276 280 283 284 287 291
223 225 227 228 229 230 232 234 237 239 240 241 242 243 245 247 248 249 251 253 255 257 259 261 263 264 266 267 267 268 268 268 268 268 267 267 267 267 267 267 267 266 267 268 268 268 269 269 268 266 263 262 261 259 258 257 257 257 257 256 257 257 257 258 258 257 257 259 261 263 264 264 265 266 267 268 269 271 273 276 279 282 283 286 290
224 226 228 229 230 231 232 235 237 239 241 243 244 245 247 249 250 251 252 254 257 260 262 264 265 266 268 269 270 270 270 271 271 271 270 269 269 269 268 268 267 267 267 268 268 268 269 270 269 267 266 264 262 260 259 258 256 255 254 255 255 255 255 256 256 256 255 257 260 261 262 262 263 265 266 266 267 270 272 275 279 281 283 286 289
225 227 229 230 232 233 235 237 239 241 242 244 246 247 249 251 252 253 254 256 259 261 263 264 266 267 269 271 272 272 272 273 274 274 273 273 272 271 270 269 268 267 268 268 268 268 268 269 268 268 267 265 263 261 259 258 256 254 254 254 253 253 253 253 254 254 254 256 258 260 260 260 261 264 265 265 266 269 271 273 277 280 282 285 287
226 228 230 232 234 235 237 239 240 242 243 245 246 247 249 251 254 255 256 259 260 262 264 265 267 269 270 271 272 273 273 273 274 275 276 276 276 274 273 271 270 269 268 268 268 268 268 268 267 267 267 265 263 262 260 258 256 255 254 253 253 252 252 251 252 253 253 254 256 258 258 258 259 263 265 264 265 266 268 271 275 278 280 284 286
226 227 230 232 234 236 238 239 240 242 244 245 247 249 251 253 255 256 259 262 263 264 266 267 268 270 271 272 273 274 275 275 276 277 279 280 281 279 277 275 273 271 270 270 269 269 268 268 267 267 266 264 263 262 260 258 256 255 254 253 252 252 251 250 250 252 252 253 254 255 256 256 258 261 263 263 262 263 265 270 274 276 278 282 285
225 226 229 231 233 235 237 239 240 243 244 246 250 253 255 256 257 259 263 265 266 267 269 269 271 272 273 274 275 277 277 278 279 280 282 282 283 283 282 280 278 276 274 273 272 270 269 267 266 265 264 263 262 261 259 257 255 254 253 251 250 250 249 248 249 250 250 251 252 251 253 255 256 258 259 260 260 262 264 268 271 274 277 281 283
226 227 230 232 233 236 238 240 243 246 248 249 252 255 258 259 260 262 265 267 269 270 271 272 274 275 275 276 277 278 279 280 281 282 283 284 284 284 283 283 281 280 278 276 274 272 269 267 266 265 263 262 262 260 258 256 254 253 251 250 248 248 247 247 247 248 248 249 249 249 251 253 253 253 256 257 258 261 263 265 267 271 275 280 281
229 231 233 236 238 240 243 244 248 251 253 254 256 257 259 261 264 266 268 269 271 273 274 274 275 276 276 277 278 279 281 282 283 284 285 285 286 285 285 284 283 282 281 279 276 273 271 269 267 266 264 262 261 259 257 255 253 251 250 248 246 246 245 245 245 245 244 245 247 248 248 249 251 252 253 254 256 259 261 262 264 268 273 277 279
231 233 235 238 240 243 245 247 250 252 254 256 258 260 262 264 266 269 272 273 274 275 276 276 277 278 278 279 280 282 284 285 286 287 287 287 288 287 287 286 285 283 282 280 277 275 273 271 269 267 265 263 261 259 257 254 251 249 247 245 244 244 243 242 242 242 241 243 245 246 246 248 251 252 252 253 254 257 258 259 263 267 271 275 276
231 233 235 238 240 243 246 249 252 254 256 258 261 264 266 267 269 271 273 275 276 277 277 278 279 280 281 282 283 284 285 287 288 289 289 289 289 289 288 287 286 284 282 280 278 276 274 272 270 269 267 264 262 259 256 252 250 248 245 243 241 241 240 239 239 239 239 240 242 243 245 247 249 251 252 252 252 255 257 258 261 266 269 272 273
233 235 238 240 243 246 248 251 253 256 258 261 264 266 268 270 271 272 273 275 276 277 278 279 281 282 283 284 285 286 287 289 290 291 291 291 291 291 291 290 289 288 285 282 281 280 278 275 273 271 269 266 263 259 255 250 247 245 243 241 239 238 236 234 235 235 235 236 238 240 242 244 245 247 250 250 250 253 255 256 259 264 267 268 270
235 238 240 243 245 248 251 253 256 258 261 264 267 269 270 271 273 274 275 277 279 279 280 280 282 283 284 285 286 288 289 290 292 293 294 295 295 295 294 293 292 291 289 287 286 285 283 280 278 275 272 270 265 260 254 250 245 241 240 239 237 234 231 229 230 231 231 233 235 237 240 242 243 245 247 248 249 252 252 253 258 264 265 266 268
239 241 244 246 249 251 254 256 258 260 263 267 269 271 273 274 276 277 279 280 281 280 280 281 283 283 284 285 287 290 291 292 294 295 297 299 299 298 297 296 295 295 294 292 291 289 288 286 283 279 275 272 266 258 252 247 242 239 238 236 233 229 226 225 225 226 228 231 234 237 240 242 243 244 246 246 248 250 250 252 258 264 265 266 267
244 246 248 250 253 255 257 259 260 263 267 270 272 274 276 277 278 279 280 280 280 280 281 282 284 285 285 287 289 292 294 294 295 297 300 304 304 303 301 300 299 298 297 297 296 294 292 292 290 286 279 271 261 250 243 239 236 235 234 229 226 224 223 221 221 223 226 230 234 236 239 242 242 243 245 246 247 248 249 251 257 262 264 265 266
246 248 251 253 255 258 260 262 265 267 270 273 275 276 277 278 278 279 279 280 281 281 282 283 285 286 287 289 292 294 295 295 296 299 303 306 308 307 306 305 303 301 301 302 301 299 298 299 298 292 281 267 251 240 235 232 230 228 225 220 217 217 216 216 219 223 226 230 233 235 238 240 241 242 244 245 246 247 247 250 255 259 261 262 264
247 250 253 255 257 260 262 264 267 269 272 274 275 276 277 277 278 279 280 281 282 282 283 284 286 287 289 291 293 295 296 296 298 300 303 306 308 309 309 309 308 308 310 312 311 310 312 315 311 295 269 251 241 231 224 223 222 218 212 208 209 210 210 213 218 224 227 230 232 234 236 238 240 241 243 244 246 246 246 249 253 257 259 262 263
249 252 254 257 260 262 264 266 268 270 272 273 274 275 276 277 278 279 280 281 283 283 284 286 287 288 291 293 294 295 296 297 298 300 303 306 308 309 310 312 314 318 321 324 326 326 328 332 331 310 256 232 230 218 210 206 202 197 195 196 200 205 209 214 220 224 226 229 231 232 234 237 239 241 242 243 244 246 247 249 252 256 260 263 262
251 255 257 260 262 263 264 266 268 270 271 272 274 275 276 277 279 280 281 282 284 285 286 287 288 289 291 294 295 295 294 295 297 299 303 306 307 308 310 313 316 322 327 332 337 341 345 352 0 9 133 183 186 183 181 179 178 180 185 192 199 205 211 217 220 223 225 228 231 233 234 236 237 238 238 238 240 244 247 250 252 256 260 262 261
254 257 259 261 263 264 264 266 268 269 270 273 274 276 277 278 280 281 281 282 283 284 285 286 288 289 291 294 297 296 294 294 296 299 302 305 306 307 310 313 316 320 325 330 335 341 349 0 15 41 86 114 135 151 158 164 171 180 188 196 202 208 213 217 220 222 225 229 233 234 234 234 234 233 234 234 237 243 247 250 253 256 258 259 258
255 257 259 260 262 264 265 267 269 270 272 274 276 277 278 279 280 281 281 281 283 284 284 285 287 289 291 293 297 297 296 295 296 298 301 305 305 305 308 313 315 318 321 325 327 330 337 346 350 349 346 348 164 168 171 178 189 196 201 205 210 215 219 222 224 226 227 229 231 230 230 230 230 231 234 237 241 245 249 252 255 257 257 256 255
254 256 258 261 263 265 267 268 270 273 275 276 277 278 280 281 281 281 281 282 283 284 285 286 288 290 291 293 295 297 297 298 298 298 300 303 305 306 307 310 313 316 319 322 325 326 328 335 340 336 327 315 286 224 205 204 206 206 208 211 214 218 221 223 226 226 227 228 228 227 228 229 230 233 238 241 244 248 251 253 255 255 254 253 255
254 257 260 262 264 266 268 270 272 275 276 277 278 280 281 282 282 282 283 284 286 287 287 288 288 290 292 294 295 296 297 298 299 299 300 302 304 306 307 310 312 315 318 320 322 323 324 327 331 330 320 306 284 245 219 212 210 210 211 213 215 218 221 225 227 226 226 226 225 225 228 231 234 238 243 245 247 250 252 253 252 251 251 253 256
255 258 261 262 263 265 268 270 273 275 277 278 280 281 281 282 282 283 284 285 287 289 289 289 289 290 292 294 295 295 296 297 298 299 300 302 303 304 306 308 309 311 314 316 317 319 320 321 320 314 304 292 276 252 231 222 219 220 222 225 227 228 229 230 230 228 226 226 228 231 234 237 240 243 246 248 249 250 251 251 250 250 251 254 257
256 259 260 260 261 263 266 270 274 275 276 278 279 281 282 282 282 283 285 287 288 288 289 289 290 291 291 292 293 294 295 297 298 298 299 302 302 301 303 306 307 308 310 312 313 313 314 312 307 298 289 280 271 259 248 239 233 230 230 231 231 231 231 230 229 229 230 233 236 239 240 243 245 246 247 248 249 248 248 250 251 251 253 255 257
257 258 257 256 259 263 267 272 275 276 277 277 278 280 282 283 283 284 286 287 287 287 286 287 289 290 290 290 290 291 293 294 296 298 299 301 301 301 303 304 305 305 307 308 308 308 308 304 299 290 280 273 267 260 253 248 243 237 234 231 230 229 229 229 231 233 236 238 241 243 243 245 247 247 246 247 248 248 249 250 252 254 255 256 257
257 255 253 256 261 266 269 273 276 277 277 277 278 280 281 283 284 285 286 286 286 285 284 285 285 286 287 288 288 290 292 293 294 295 297 298 298 298 300 301 300 301 302 301 301 300 298 294 289 283 274 267 263 259 254 250 245 241 238 237 235 234 235 238 241 242 242 242 244 246 247 246 247 247 247 248 249 250 251 253 254 256 257 257 257
255 253 254 259 265 269 272 275 276 277 278 278 279 281 282 283 284 285 286 286 286 285 284 284 284 284 285 286 286 288 291 294 296 296 296 297 297 295 293 294 295 296 297 295 292 290 289 285 279 272 265 260 257 257 256 254 251 249 247 244 242 241 243 246 247 247 246 246 247 249 250 250 250 250 250 251 251 252 253 255 256 256 257 258 258
253 253 258 265 269 272 276 278 278 279 281 281 281 282 283 283 284 286 286 286 285 285 284 284 284 284 284 286 286 287 288 290 293 295 296 297 297 295 292 291 290 290 290 290 287 283 280 277 271 265 262 261 260 260 261 260 259 256 252 249 248 248 249 250 250 251 251 251 251 252 253 253 252 252 253 253 254 254 255 255 256 257 257 258 259